Location: ČR
(50.0000°N, 15.0000°E)
Time: 06:42:29
(UTC+02:00)

A-11 Canister half - Pass Details

Date: 19 March 2026
Orbit: 1514 x 1685 km, 47.2° (Epoch: 18 April)

Event Time Altitude Azimuth Distance (km) Brightness Sun altitude
Rises 12:24:38 0° 213° (SSW) 4,792 12.3 39.4°
Reaches altitude 10° 12:27:57 10° 206° (SSW) 3,833 12.2 39.4°
Maximum altitude 12:36:47 40° 142° (SE) 2,291 11.0 39.2°
Drops below altitude 10° 12:45:50 10° 78° (ENE) 3,942 11.0 38.9°
Sets 12:49:16 0° 72° (ENE) 4,941 11.4 38.8°
